Regional Weather Roundup
Issued by NWS

Home | Current Version | Previous Version | Graphics & Text | Print | Product List | Glossary On
Versions: 1 2 3 4 5 6 7 8 9 10 11 12 13 14 15 16 17 18 19 20 21 22 23 24 25 26 27 28 29 30 31 32 33 34 35 36 37 38 39 40 41 42 43 44 45 46 47 48 49 50
000
ASUS43 KLMK 240510
RWRKY
KENTUCKY REGIONAL WEATHER ROUNDUP
NATIONAL WEATHER SERVICE LOUISVILLE KY
100 AM EDT FRI MAR 24 2017

NOTE "FAIR" INDICATES FEW OR NO CLOUDS BELOW 12,000 FEET
WITH NO SIGNIFICANT WEATHER AND/OR OBSTRUCTIONS TO VISIBILITY.

KYZ001>023-026-027-061>063-070>075-240600-
WESTERN AND SOUTH CENTRAL KENTUCKY

CITY           SKY/WX    TMP DP  RH WIND       PRES   REMARKS
PADUCAH        CLEAR     56  43  61 SE7       30.09S
HENDERSON      CLEAR     52  41  66 SE9       30.11S
OWENSBORO      CLEAR     55  44  66 SE13      30.15S
HOPKINSVILLE   CLEAR     61  45  55 SE10      30.15S
BOWLING GREEN  CLEAR     58  42  55 SE8       30.21S
GLASGOW        CLEAR     56  40  54 S8        30.23S
$$

KYZ024-025-028>034-038-045-046-053-240600-
NORTH CENTRAL KENTUCKY

CITY           SKY/WX    TMP DP  RH WIND       PRES   REMARKS
LOUISVILLE/SDF PTCLDY    60  38  43 S13       30.18F
LOUISVILLE/LOU CLEAR     57  39  51 SE3       30.19F
FORT KNOX      CLEAR     56  41  57 SE13      30.17F
$$

KYZ035>037-039>044-047>052-055>060-089>105-240600-
NORTHEAST KENTUCKY

CITY           SKY/WX    TMP DP  RH WIND       PRES   REMARKS
LEXINGTON      CLEAR     54  36  50 S9        30.22F
COVINGTON      CLOUDY    51  33  50 S7        30.19F
FRANKFORT      PTCLDY    54  35  48 S8        30.20F
$$

KYZ054-064>069-076>088-106>120-240600-
SOUTHEAST KENTUCKY

CITY           SKY/WX    TMP DP  RH WIND       PRES   REMARKS
JACKSON        CLOUDY    58  33  39 SW3       30.28R
LONDON         MOCLDY    55  36  48 S5        30.29R
SOMERSET       MOCLDY    55  36  47 S12       30.29S
MIDDLESBORO    CLEAR     57  38  48 S6        30.34R
MONTICELLO     CLEAR     58  39  49 S8        30.29R
$$




USA.gov is the U.S. government's official web portal to all federal, state and local government web resources and services.